QPF
0.00 0.00 0.00 0.01 0.01 0.01 0.01 0.01 0.01 0.01 0.02 0.02 0.02 0.03 0.05 0.04 0.03 0.05 0.08 0.07 0.05 0.04 0.04 0.04 0.05 0.10 0.14 0.08 0.07 0.08 0.10 0.09 0.08 0.06 0.03 0.02 0.01 0.01 0.02 0.02 0.02 0.03 0.03 0.04
0.00 0.00 0.00 0.01 0.00 0.00 0.00 0.01 0.01 0.01 0.02 0.03 0.02 0.03 0.05 0.04 0.04 0.03 0.03 0.05 0.05 0.05 0.05 0.05 0.03 0.03 0.03 0.03 0.03 0.04 0.04 0.07 0.09 0.07 0.03 0.01 0.01 0.01 0.01 0.02 0.03 0.04 0.04 0.04
0.00 0.00 0.00 0.00 0.00 0.01 0.00 0.00 0.00 0.01 0.02 0.03 0.02 0.03 0.05 0.03 0.02 0.02 0.02 0.03 0.06 0.07 0.07 0.04 0.02 0.01 0.02 0.02 0.04 0.04 0.04 0.04 0.06 0.04 0.02 0.01 0.01 0.00 0.01 0.02 0.03 0.04 0.04 0.04
0.00 0.00 0.00 0.00 0.00 0.01 0.00 0.00 0.01 0.01 0.02 0.04 0.04 0.03 0.05 0.04 0.02 0.02 0.02 0.02 0.04 0.06 0.04 0.03 0.03 0.02 0.03 0.03 0.05 0.05 0.03 0.02 0.02 0.02 0.01 0.01 0.01 0.01 0.01 0.01 0.02 0.02 0.03 0.04
0.00 0.00 0.00 0.00 0.01 0.01 0.01 0.01 0.02 0.02 0.03 0.05 0.07 0.04 0.04 0.04 0.03 0.03 0.03 0.02 0.02 0.03 0.03 0.03 0.04 0.05 0.04 0.04 0.05 0.05 0.04 0.03 0.02 0.02 0.02 0.02 0.02 0.01 0.02 0.02 0.02 0.02 0.02 0.03
0.00 0.00 0.00 0.00 0.00 0.00 0.00 0.01 0.02 0.04 0.03 0.04 0.06 0.07 0.04 0.03 0.03 0.04 0.05 0.04 0.04 0.03 0.03 0.04 0.05 0.06 0.06 0.06 0.05 0.04 0.03 0.03 0.02 0.02 0.03 0.02 0.02 0.02 0.02 0.02 0.02 0.02 0.04 0.05
0.00 0.00 0.01 0.00 0.00 0.00 0.01 0.01 0.02 0.02 0.02 0.03 0.04 0.05 0.03 0.02 0.02 0.04 0.09 0.10 0.09 0.05 0.04 0.05 0.06 0.07 0.07 0.06 0.03 0.02 0.02 0.03 0.03 0.02 0.03 0.03 0.03 0.02 0.02 0.02 0.02 0.02 0.04 0.07
0.00 0.00 0.01 0.00 0.00 0.01 0.01 0.03 0.03 0.02 0.02 0.02 0.03 0.04 0.05 0.04 0.04 0.05 0.06 0.05 0.05 0.05 0.04 0.04 0.05 0.05 0.05 0.03 0.03 0.03 0.03 0.03 0.02 0.03 0.03 0.03 0.02 0.02 0.02 0.02 0.02 0.02 0.03 0.05
0.00 0.01 0.01 0.00 0.00 0.01 0.02 0.06 0.08 0.05 0.03 0.02 0.03 0.05 0.06 0.06 0.06 0.07 0.04 0.02 0.01 0.02 0.02 0.03 0.03 0.03 0.03 0.04 0.05 0.05 0.04 0.03 0.03 0.03 0.04 0.03 0.03 0.02 0.02 0.02 0.02 0.02 0.02 0.03
0.01 0.01 0.01 0.01 0.01 0.01 0.01 0.03 0.03 0.02 0.02 0.02 0.03 0.03 0.05 0.06 0.06 0.07 0.05 0.03 0.02 0.02 0.03 0.04 0.04 0.05 0.08 0.09 0.09 0.06 0.04 0.03 0.03 0.04 0.04 0.03 0.03 0.02 0.02 0.02 0.02 0.02 0.02 0.02
0.03 0.03 0.01 0.01 0.02 0.01 0.01 0.01 0.01 0.01 0.01 0.01 0.01 0.02 0.03 0.06 0.06 0.07 0.09 0.08 0.05 0.04 0.05 0.06 0.05 0.05 0.07 0.09 0.12 0.08 0.05 0.03 0.04 0.04 0.04 0.03 0.04 0.04 0.03 0.02 0.03 0.03 0.03 0.03
0.05 0.03 0.02 0.02 0.04 0.05 0.03 0.02 0.01 0.01 0.01 0.01 0.01 0.01 0.03 0.09 0.12 0.12 0.10 0.07 0.05 0.04 0.05 0.05 0.04 0.03 0.03 0.04 0.04 0.05 0.05 0.05 0.05 0.04 0.03 0.03 0.03 0.03 0.03 0.04 0.04 0.04 0.04 0.03
0.06 0.05 0.05 0.04 0.04 0.03 0.04 0.03 0.02 0.02 0.02 0.01 0.02 0.02 0.03 0.06 0.06 0.06 0.07 0.06 0.06 0.07 0.07 0.05 0.03 0.02 0.02 0.04 0.05 0.05 0.04 0.04 0.04 0.04 0.04 0.03 0.03 0.03 0.04 0.05 0.06 0.06 0.05 0.04
0.04 0.05 0.07 0.07 0.05 0.03 0.03 0.04 0.04 0.05 0.03 0.03 0.05 0.05 0.05 0.07 0.10 0.08 0.04 0.04 0.07 0.12 0.12 0.07 0.04 0.02 0.03 0.04 0.06 0.06 0.05 0.05 0.04 0.03 0.04 0.04 0.04 0.04 0.06 0.07 0.09 0.09 0.07 0.05
0.06 0.04 0.06 0.12 0.14 0.08 0.07 0.09 0.10 0.09 0.05 0.06 0.09 0.08 0.05 0.04 0.04 0.05 0.04 0.04 0.06 0.09 0.08 0.05 0.04 0.03 0.04 0.04 0.05 0.06 0.06 0.04 0.04 0.04 0.04 0.03 0.04 0.05 0.07 0.08 0.08 0.06 0.05 0.04
0.13 0.10 0.06 0.09 0.19 0.16 0.10 0.10 0.10 0.10 0.08 0.07 0.08 0.08 0.08 0.07 0.07 0.07 0.05 0.04 0.04 0.04 0.03 0.03 0.03 0.03 0.03 0.03 0.03 0.03 0.04 0.04 0.04 0.04 0.03 0.03 0.03 0.04 0.05 0.05 0.06 0.06 0.05 0.04
0.13 0.16 0.12 0.11 0.15 0.15 0.09 0.07 0.06 0.06 0.06 0.07 0.07 0.07 0.07 0.07 0.06 0.04 0.04 0.04 0.04 0.04 0.03 0.02 0.02 0.03 0.03 0.03 0.03 0.03 0.03 0.04 0.04 0.04 0.04 0.04 0.05 0.05 0.06 0.05 0.04 0.05 0.06 0.06
0.10 0.14 0.11 0.11 0.15 0.17 0.12 0.08 0.07 0.04 0.04 0.04 0.04 0.05 0.05 0.05 0.06 0.06 0.06 0.05 0.04 0.04 0.04 0.04 0.04 0.05 0.04 0.04 0.04 0.03 0.03 0.03 0.03 0.03 0.03 0.04 0.06 0.07 0.08 0.06 0.04 0.03 0.04 0.06
0.12 0.16 0.14 0.12 0.12 0.13 0.12 0.12 0.13 0.07 0.04 0.04 0.04 0.05 0.06 0.05 0.07 0.09 0.08 0.07 0.06 0.05 0.05 0.06 0.08 0.06 0.05 0.04 0.05 0.05 0.03 0.04 0.04 0.04 0.04 0.05 0.07 0.08 0.06 0.05 0.04 0.03 0.04 0.05
0.12 0.15 0.16 0.12 0.10 0.13 0.12 0.09 0.12 0.10 0.09 0.07 0.06 0.06 0.07 0.05 0.05 0.06 0.05 0.05 0.05 0.05 0.04 0.04 0.04 0.04 0.03 0.04 0.05 0.06 0.05 0.06 0.07 0.06 0.06 0.08 0.10 0.09 0.06 0.04 0.04 0.03 0.03 0.04
0.12 0.13 0.13 0.12 0.12 0.14 0.12 0.09 0.09 0.08 0.09 0.09 0.08 0.08 0.06 0.04 0.03 0.02 0.03 0.03 0.03 0.02 0.02 0.02 0.02 0.02 0.02 0.03 0.05 0.06 0.07 0.07 0.07 0.08 0.09 0.10 0.09 0.08 0.07 0.05 0.05 0.04 0.04 0.05
0.12 0.13 0.13 0.14 0.15 0.14 0.10 0.07 0.05 0.06 0.06 0.05 0.05 0.05 0.05 0.05 0.03 0.02 0.02 0.02 0.02 0.01 0.01 0.01 0.01 0.01 0.02 0.03 0.04 0.05 0.06 0.07 0.06 0.07 0.07 0.07 0.07 0.07 0.07 0.06 0.06 0.06 0.06 0.05
0.13 0.13 0.13 0.15 0.16 0.10 0.07 0.05 0.04 0.03 0.04 0.03 0.04 0.05 0.05 0.05 0.04 0.03 0.03 0.02 0.02 0.02 0.01 0.01 0.01 0.02 0.04 0.05 0.05 0.05 0.06 0.07 0.07 0.07 0.06 0.05 0.05 0.05 0.06 0.06 0.06 0.05 0.05 0.04
0.10 0.11 0.10 0.10 0.11 0.08 0.06 0.06 0.06 0.05 0.04 0.04 0.05 0.06 0.06 0.05 0.04 0.03 0.02 0.02 0.02 0.02 0.02 0.02 0.03 0.04 0.04 0.06 0.07 0.07 0.07 0.08 0.07 0.06 0.05 0.05 0.04 0.04 0.04 0.03 0.03 0.02 0.02 0.02
0.08 0.05 0.06 0.06 0.07 0.06 0.05 0.05 0.06 0.07 0.06 0.06 0.06 0.08 0.07 0.05 0.04 0.03 0.03 0.03 0.03 0.03 0.03 0.04 0.05 0.05 0.05 0.05 0.07 0.08 0.06 0.05 0.05 0.04 0.04 0.04 0.04 0.04 0.02 0.02 0.02 0.01 0.01 0.02
0.07 0.05 0.06 0.07 0.07 0.06 0.06 0.05 0.06 0.07 0.07 0.08 0.08 0.08 0.07 0.05 0.05 0.05 0.04 0.04 0.05 0.05 0.04 0.05 0.05 0.04 0.04 0.04 0.04 0.05 0.05 0.04 0.03 0.03 0.03 0.04 0.04 0.04 0.03 0.03 0.03 0.03 0.03 0.04
0.07 0.06 0.06 0.07 0.06 0.06 0.08 0.08 0.07 0.09 0.09 0.09 0.07 0.06 0.06 0.05 0.04 0.05 0.05 0.05 0.04 0.05 0.05 0.05 0.06 0.05 0.04 0.03 0.03 0.03 0.03 0.04 0.03 0.03 0.03 0.02 0.02 0.02 0.02 0.02 0.03 0.04 0.04 0.05
MSLP
1011.41 1011.68 1011.98 1012.29 1012.60 1012.88 1013.08 1013.17 1013.12 1012.92 1012.60 1012.19 1011.73 1011.29 1010.92 1010.64 1010.47 1010.38 1010.37 1010.37 1010.38 1010.35 1010.28 1010.21 1010.15 1010.14 1010.23 1010.44 1010.78 1011.22 1011.73 1012.27 1012.79 1013.24 1013.60 1013.88 1014.07 1014.22 1014.37 1014.53 1014.74 1015.00 1015.31 1015.63
1012.18 1012.49 1012.76 1013.01 1013.20 1013.35 1013.43 1013.43 1013.34 1013.17 1012.93 1012.64 1012.33 1012.03 1011.75 1011.50 1011.29 1011.08 1010.88 1010.67 1010.43 1010.19 1009.94 1009.74 1009.62 1009.61 1009.74 1010.02 1010.44 1010.97 1011.55 1012.15 1012.70 1013.19 1013.58 1013.89 1014.12 1014.31 1014.50 1014.71 1014.96 1015.26 1015.58 1015.91
1012.92 1013.27 1013.55 1013.76 1013.90 1013.97 1013.98 1013.93 1013.83 1013.69 1013.52 1013.34 1013.14 1012.92 1012.70 1012.45 1012.17 1011.85 1011.48 1011.07 1010.63 1010.20 1009.82 1009.52 1009.35 1009.34 1009.50 1009.83 1010.30 1010.87 1011.49 1012.10 1012.68 1013.17 1013.58 1013.90 1014.17 1014.41 1014.65 1014.91 1015.20 1015.53 1015.88 1016.22
1013.65 1014.04 1014.34 1014.54 1014.66 1014.69 1014.66 1014.59 1014.49 1014.37 1014.25 1014.12 1013.98 1013.82 1013.61 1013.33 1012.99 1012.56 1012.06 1011.50 1010.93 1010.38 1009.91 1009.56 1009.36 1009.35 1009.53 1009.88 1010.37 1010.94 1011.56 1012.16 1012.71 1013.19 1013.59 1013.93 1014.22 1014.50 1014.80 1015.11 1015.46 1015.82 1016.19 1016.53
1014.39 1014.80 1015.12 1015.32 1015.42 1015.43 1015.38 1015.28 1015.17 1015.05 1014.94 1014.83 1014.70 1014.54 1014.32 1014.01 1013.61 1013.11 1012.53 1011.90 1011.26 1010.66 1010.16 1009.80 1009.62 1009.62 1009.81 1010.16 1010.63 1011.18 1011.75 1012.30 1012.80 1013.24 1013.62 1013.96 1014.28 1014.60 1014.94 1015.32 1015.71 1016.12 1016.50 1016.85
1015.16 1015.57 1015.87 1016.06 1016.14 1016.12 1016.03 1015.89 1015.74 1015.60 1015.45 1015.31 1015.16 1014.96 1014.70 1014.35 1013.91 1013.38 1012.78 1012.13 1011.50 1010.92 1010.46 1010.14 1010.00 1010.04 1010.24 1010.58 1011.02 1011.51 1012.01 1012.49 1012.92 1013.31 1013.66 1013.99 1014.33 1014.69 1015.08 1015.50 1015.94 1016.38 1016.78 1017.13
1015.96 1016.32 1016.59 1016.74 1016.77 1016.69 1016.54 1016.34 1016.12 1015.90 1015.69 1015.47 1015.24 1014.98 1014.67 1014.29 1013.82 1013.29 1012.71 1012.12 1011.55 1011.06 1010.69 1010.46 1010.39 1010.47 1010.70 1011.03 1011.43 1011.86 1012.29 1012.68 1013.05 1013.38 1013.70 1014.02 1014.37 1014.75 1015.18 1015.64 1016.12 1016.58 1017.00 1017.34
1016.75 1017.05 1017.25 1017.32 1017.27 1017.12 1016.88 1016.58 1016.26 1015.93 1015.60 1015.27 1014.94 1014.60 1014.22 1013.79 1013.32 1012.82 1012.30 1011.80 1011.35 1010.98 1010.74 1010.62 1010.65 1010.80 1011.06 1011.39 1011.76 1012.13 1012.49 1012.82 1013.12 1013.41 1013.70 1014.01 1014.37 1014.77 1015.23 1015.71 1016.21 1016.68 1017.10 1017.44
1017.50 1017.71 1017.82 1017.79 1017.65 1017.38 1017.03 1016.61 1016.16 1015.69 1015.22 1014.76 1014.30 1013.85 1013.40 1012.93 1012.46 1012.00 1011.56 1011.17 1010.86 1010.64 1010.54 1010.55 1010.69 1010.92 1011.22 1011.56 1011.92 1012.26 1012.57 1012.85 1013.12 1013.37 1013.65 1013.96 1014.32 1014.74 1015.20 1015.69 1016.19 1016.66 1017.07 1017.39
1018.13 1018.25 1018.25 1018.13 1017.87 1017.49 1017.01 1016.46 1015.86 1015.25 1014.63 1014.02 1013.44 1012.88 1012.34 1011.84 1011.37 1010.94 1010.58 1010.31 1010.13 1010.06 1010.09 1010.24 1010.48 1010.79 1011.15 1011.52 1011.88 1012.21 1012.50 1012.77 1013.02 1013.27 1013.54 1013.85 1014.21 1014.63 1015.09 1015.57 1016.05 1016.49 1016.88 1017.19
1018.60 1018.63 1018.53 1018.31 1017.94 1017.45 1016.86 1016.19 1015.46 1014.70 1013.95 1013.21 1012.50 1011.84 1011.23 1010.68 1010.21 1009.82 1009.53 1009.35 1009.29 1009.34 1009.51 1009.77 1010.10 1010.49 1010.90 1011.30 1011.68 1012.02 1012.32 1012.59 1012.85 1013.11 1013.39 1013.70 1014.07 1014.47 1014.90 1015.35 1015.79 1016.20 1016.55 1016.84
1018.84 1018.80 1018.63 1018.32 1017.88 1017.31 1016.63 1015.86 1015.04 1014.18 1013.32 1012.47 1011.67 1010.93 1010.26 1009.68 1009.20 1008.84 1008.61 1008.50 1008.53 1008.67 1008.93 1009.27 1009.68 1010.12 1010.57 1011.01 1011.41 1011.77 1012.09 1012.38 1012.66 1012.94 1013.23 1013.55 1013.90 1014.28 1014.68 1015.08 1015.46 1015.81 1016.12 1016.36
1018.87 1018.77 1018.55 1018.20 1017.71 1017.10 1016.38 1015.57 1014.69 1013.78 1012.86 1011.96 1011.10 1010.31 1009.61 1009.01 1008.54 1008.20 1008.01 1007.95 1008.04 1008.24 1008.55 1008.94 1009.39 1009.86 1010.33 1010.78 1011.19 1011.57 1011.91 1012.22 1012.52 1012.81 1013.11 1013.42 1013.76 1014.10 1014.45 1014.78 1015.10 1015.38 1015.62 1015.82
1018.70 1018.57 1018.33 1017.96 1017.47 1016.86 1016.15 1015.35 1014.49 1013.58 1012.66 1011.75 1010.89 1010.10 1009.40 1008.81 1008.36 1008.04 1007.87 1007.85 1007.96 1008.19 1008.52 1008.92 1009.37 1009.84 1010.30 1010.74 1011.14 1011.52 1011.86 1012.17 1012.47 1012.76 1013.06 1013.35 1013.65 1013.95 1014.23 1014.50 1014.74 1014.95 1015.13 1015.27
1018.39 1018.25 1018.00 1017.66 1017.20 1016.64 1015.99 1015.25 1014.45 1013.61 1012.75 1011.89 1011.08 1010.33 1009.66 1009.11 1008.69 1008.41 1008.26 1008.25 1008.38 1008.60 1008.92 1009.29 1009.70 1010.13 1010.55 1010.95 1011.32 1011.66 1011.97 1012.27 1012.55 1012.82 1013.08 1013.34 1013.60 1013.84 1014.06 1014.25 1014.42 1014.55 1014.66 1014.75
1018.00 1017.86 1017.64 1017.33 1016.94 1016.47 1015.91 1015.28 1014.58 1013.85 1013.09 1012.33 1011.61 1010.94 1010.35 1009.86 1009.49 1009.24 1009.11 1009.11 1009.22 1009.43 1009.70 1010.02 1010.37 1010.73 1011.07 1011.40 1011.70 1011.98 1012.24 1012.48 1012.72 1012.94 1013.16 1013.37 1013.57 1013.74 1013.90 1014.02 1014.12 1014.19 1014.23 1014.27
1017.60 1017.46 1017.27 1017.02 1016.71 1016.34 1015.90 1015.39 1014.83 1014.23 1013.60 1012.97 1012.37 1011.80 1011.30 1010.89 1010.58 1010.37 1010.27 1010.27 1010.36 1010.52 1010.74 1010.99 1011.25 1011.51 1011.77 1012.00 1012.21 1012.40 1012.58 1012.75 1012.92 1013.08 1013.23 1013.38 1013.51 1013.63 1013.72 1013.78 1013.82 1013.83 1013.82 1013.81
1017.22 1017.10 1016.94 1016.75 1016.52 1016.24 1015.91 1015.54 1015.11 1014.65 1014.16 1013.67 1013.18 1012.73 1012.33 1012.00 1011.75 1011.58 1011.49 1011.49 1011.55 1011.67 1011.82 1011.99 1012.16 1012.32 1012.47 1012.59 1012.70 1012.80 1012.88 1012.97 1013.05 1013.13 1013.21 1013.29 1013.36 1013.42 1013.46 1013.47 1013.47 1013.44 1013.39 1013.34
1016.91 1016.78 1016.65 1016.50 1016.34 1016.14 1015.91 1015.64 1015.33 1014.99 1014.63 1014.25 1013.88 1013.53 1013.21 1012.95 1012.74 1012.61 1012.53 1012.52 1012.55 1012.61 1012.70 1012.79 1012.87 1012.94 1012.98 1013.02 1013.02 1013.02 1013.02 1013.01 1013.01 1013.02 1013.03 1013.05 1013.07 1013.08 1013.07 1013.05 1013.01 1012.96 1012.89 1012.81
1016.66 1016.52 1016.39 1016.27 1016.14 1016.00 1015.83 1015.63 1015.41 1015.16 1014.88 1014.59 1014.30 1014.02 1013.77 1013.55 1013.38 1013.26 1013.19 1013.15 1013.15 1013.17 1013.19 1013.21 1013.22 1013.21 1013.18 1013.13 1013.06 1012.98 1012.90 1012.82 1012.76 1012.70 1012.66 1012.62 1012.59 1012.56 1012.52 1012.47 1012.42 1012.35 1012.26 1012.17
1016.44 1016.28 1016.15 1016.02 1015.91 1015.78 1015.64 1015.48 1015.30 1015.10 1014.87 1014.63 1014.38 1014.14 1013.93 1013.73 1013.57 1013.45 1013.36 1013.30 1013.26 1013.24 1013.22 1013.19 1013.14 1013.08 1013.00 1012.89 1012.78 1012.65 1012.52 1012.39 1012.28 1012.17 1012.08 1012.01 1011.94 1011.88 1011.82 1011.75 1011.68 1011.59 1011.50 1011.40
1016.24 1016.07 1015.91 1015.77 1015.63 1015.50 1015.35 1015.20 1015.02 1014.82 1014.61 1014.38 1014.15 1013.92 1013.70 1013.51 1013.34 1013.20 1013.08 1012.99 1012.92 1012.87 1012.81 1012.75 1012.68 1012.59 1012.48 1012.36 1012.22 1012.07 1011.92 1011.77 1011.63 1011.50 1011.38 1011.27 1011.17 1011.08 1011.00 1010.91 1010.82 1010.72 1010.62 1010.50
1016.07 1015.86 1015.68 1015.50 1015.34 1015.18 1015.00 1014.82 1014.62 1014.41 1014.19 1013.95 1013.70 1013.46 1013.23 1013.01 1012.82 1012.65 1012.50 1012.39 1012.29 1012.20 1012.12 1012.05 1011.96 1011.87 1011.76 1011.64 1011.51 1011.37 1011.22 1011.06 1010.91 1010.77 1010.62 1010.49 1010.37 1010.25 1010.13 1010.02 1009.90 1009.78 1009.66 1009.52
1015.92 1015.69 1015.48 1015.27 1015.07 1014.87 1014.67 1014.45 1014.22 1013.99 1013.74 1013.47 1013.21 1012.94 1012.69 1012.44 1012.22 1012.02 1011.85 1011.70 1011.57 1011.46 1011.37 1011.29 1011.21 1011.13 1011.03 1010.93 1010.82 1010.69 1010.55 1010.41 1010.25 1010.09 1009.93 1009.78 1009.62 1009.46 1009.31 1009.16 1009.01 1008.85 1008.69 1008.53
1015.81 1015.57 1015.34 1015.11 1014.88 1014.66 1014.42 1014.18 1013.93 1013.67 1013.40 1013.12 1012.84 1012.56 1012.28 1012.02 1011.77 1011.54 1011.34 1011.16 1011.01 1010.89 1010.79 1010.70 1010.62 1010.55 1010.48 1010.39 1010.30 1010.18 1010.06 1009.91 1009.75 1009.58 1009.40 1009.21 1009.01 1008.81 1008.61 1008.41 1008.21 1008.01 1007.81 1007.61
1015.76 1015.53 1015.29 1015.06 1014.82 1014.58 1014.34 1014.09 1013.84 1013.58 1013.31 1013.03 1012.74 1012.46 1012.17 1011.90 1011.63 1011.39 1011.17 1010.97 1010.80 1010.66 1010.54 1010.45 1010.37 1010.30 1010.22 1010.15 1010.06 1009.95 1009.82 1009.67 1009.49 1009.29 1009.07 1008.84 1008.59 1008.34 1008.09 1007.83 1007.57 1007.32 1007.07 1006.83
1015.79 1015.58 1015.36 1015.14 1014.92 1014.69 1014.46 1014.23 1014.00 1013.76 1013.51 1013.26 1012.99 1012.72 1012.45 1012.18 1011.91 1011.66 1011.42 1011.21 1011.02 1010.86 1010.72 1010.60 1010.50 1010.42 1010.33 1010.24 1010.13 1010.01 1009.85 1009.67 1009.47 1009.23 1008.97 1008.68 1008.38 1008.08 1007.76 1007.45 1007.14 1006.84 1006.54 1006.26
Thickness
5781 5792 5796 5795 5797 5800 5791 5781 5769 5771 5776 5787 5799 5801 5801 5801 5800 5800 5799 5799 5798 5796 5792 5790 5789 5787 5784 5780 5777 5774 5768 5763 5759 5756 5752 5749 5746 5744 5742 5739 5736 5733 5729 5726
5772 5787 5790 5788 5793 5796 5794 5790 5783 5782 5779 5795 5801 5802 5799 5797 5796 5794 5794 5796 5796 5794 5790 5788 5787 5784 5781 5778 5774 5770 5764 5759 5756 5752 5748 5745 5742 5740 5737 5734 5731 5728 5724 5721
5748 5769 5774 5761 5781 5787 5786 5789 5784 5774 5781 5791 5789 5791 5792 5794 5794 5792 5793 5793 5791 5790 5788 5787 5786 5784 5778 5775 5771 5765 5760 5755 5751 5747 5744 5741 5739 5735 5732 5729 5726 5722 5719 5716
5735 5747 5734 5758 5788 5792 5784 5782 5785 5784 5787 5790 5790 5791 5793 5794 5792 5790 5791 5789 5788 5788 5787 5786 5784 5781 5776 5771 5766 5760 5755 5751 5747 5744 5740 5737 5734 5731 5727 5724 5721 5717 5714 5710
5719 5721 5733 5759 5778 5781 5772 5763 5778 5780 5784 5787 5790 5786 5783 5789 5790 5789 5789 5788 5787 5786 5785 5783 5779 5775 5771 5765 5760 5755 5750 5746 5743 5740 5736 5732 5729 5726 5722 5719 5716 5712 5709 5706
5715 5715 5714 5742 5774 5785 5773 5748 5772 5776 5775 5777 5777 5759 5766 5782 5783 5783 5783 5783 5781 5781 5779 5776 5773 5769 5762 5758 5754 5750 5746 5743 5739 5736 5732 5728 5724 5721 5718 5715 5711 5707 5703 5701
5708 5708 5719 5752 5770 5773 5739 5739 5765 5769 5769 5769 5765 5765 5773 5777 5776 5776 5776 5776 5776 5774 5771 5769 5766 5763 5754 5751 5748 5747 5744 5740 5735 5732 5728 5724 5721 5717 5713 5709 5705 5701 5697 5694
5699 5697 5708 5749 5755 5745 5742 5757 5761 5762 5763 5763 5764 5766 5767 5767 5767 5767 5765 5765 5765 5763 5761 5759 5757 5754 5748 5745 5745 5742 5738 5733 5730 5727 5724 5721 5715 5711 5706 5702 5697 5694 5690 5687
5701 5704 5724 5739 5743 5747 5749 5749 5754 5756 5759 5760 5758 5757 5757 5757 5758 5756 5756 5755 5754 5753 5750 5748 5748 5746 5741 5739 5738 5734 5730 5727 5724 5721 5717 5714 5709 5703 5698 5695 5690 5686 5683 5679
5699 5709 5721 5730 5736 5740 5743 5744 5749 5752 5754 5754 5750 5750 5749 5748 5747 5747 5748 5746 5745 5743 5741 5739 5739 5739 5736 5734 5732 5727 5722 5719 5717 5713 5709 5705 5701 5697 5692 5688 5684 5680 5677 5673
5690 5702 5712 5720 5725 5730 5733 5738 5741 5745 5747 5747 5745 5743 5742 5741 5740 5740 5740 5738 5738 5736 5733 5732 5731 5731 5730 5728 5725 5720 5716 5713 5709 5706 5702 5697 5693 5689 5686 5684 5681 5677 5673 5670
5682 5695 5696 5704 5717 5722 5723 5726 5730 5733 5735 5738 5740 5737 5736 5734 5734 5733 5733 5732 5731 5729 5727 5726 5725 5723 5722 5721 5718 5713 5709 5706 5702 5698 5694 5690 5685 5680 5678 5677 5675 5672 5670 5666
5692 5698 5698 5704 5710 5714 5715 5719 5723 5725 5726 5727 5730 5730 5729 5727 5726 5724 5724 5724 5722 5720 5719 5718 5717 5715 5714 5713 5710 5707 5703 5700 5696 5692 5687 5683 5679 5676 5671 5669 5667 5664 5662 5659
5691 5692 5690 5694 5697 5703 5707 5712 5714 5717 5718 5720 5720 5721 5720 5719 5717 5715 5715 5716 5715 5713 5711 5710 5709 5707 5707 5705 5702 5699 5696 5693 5690 5686 5682 5678 5674 5671 5668 5664 5660 5657 5655 5653
5682 5684 5683 5687 5691 5694 5698 5701 5701 5703 5707 5708 5710 5710 5708 5707 5707 5706 5707 5707 5705 5703 5701 5701 5699 5698 5698 5697 5694 5691 5689 5686 5683 5680 5676 5673 5670 5667 5663 5660 5656 5652 5648 5644
5671 5675 5677 5679 5682 5685 5688 5690 5690 5693 5696 5698 5698 5699 5699 5698 5698 5699 5698 5697 5694 5693 5693 5692 5690 5690 5690 5687 5685 5683 5681 5680 5677 5673 5670 5667 5664 5661 5658 5654 5650 5646 5642 5638
5659 5661 5664 5668 5674 5678 5680 5681 5683 5685 5688 5690 5690 5690 5689 5688 5687 5687 5687 5687 5685 5685 5685 5684 5683 5682 5681 5680 5677 5675 5673 5672 5670 5666 5663 5661 5659 5656 5653 5649 5644 5640 5637 5634
5658 5659 5661 5664 5667 5671 5674 5677 5677 5678 5680 5682 5682 5681 5680 5679 5678 5678 5678 5678 5676 5675 5676 5676 5675 5674 5673 5672 5670 5668 5666 5664 5662 5659 5657 5655 5653 5651 5648 5644 5639 5635 5630 5627
5654 5655 5657 5661 5664 5667 5670 5671 5670 5672 5674 5675 5674 5673 5673 5672 5671 5671 5671 5669 5666 5665 5667 5668 5667 5666 5665 5664 5663 5661 5659 5657 5655 5653 5650 5648 5646 5644 5641 5637 5633 5629 5625 5620
5651 5651 5653 5656 5660 5663 5664 5666 5666 5666 5668 5668 5667 5666 5664 5664 5663 5662 5662 5660 5660 5660 5661 5661 5660 5658 5657 5657 5656 5653 5651 5649 5647 5645 5642 5640 5638 5636 5633 5630 5626 5622 5618 5615
5646 5646 5648 5650 5653 5658 5660 5660 5661 5661 5661 5662 5660 5659 5658 5657 5656 5654 5652 5651 5653 5654 5653 5652 5651 5650 5649 5648 5648 5646 5644 5641 5639 5637 5635 5633 5630 5628 5625 5622 5619 5616 5612 5608
5641 5641 5643 5645 5647 5649 5652 5654 5654 5654 5654 5654 5654 5653 5651 5649 5648 5647 5646 5645 5646 5646 5644 5644 5643 5643 5642 5641 5639 5638 5636 5634 5632 5630 5628 5626 5623 5621 5618 5615 5612 5609 5605 5602
5634 5636 5638 5639 5641 5643 5646 5647 5647 5648 5647 5647 5646 5645 5644 5642 5641 5639 5637 5638 5638 5638 5637 5636 5637 5636 5634 5633 5632 5631 5629 5627 5625 5623 5621 5619 5617 5614 5611 5608 5605 5602 5599 5595
5629 5631 5632 5634 5636 5637 5637 5639 5640 5640 5641 5641 5640 5639 5638 5636 5634 5634 5634 5633 5631 5630 5630 5630 5629 5628 5627 5625 5624 5623 5621 5619 5617 5616 5614 5612 5609 5607 5604 5601 5598 5595 5593 5590
5625 5626 5627 5627 5628 5629 5631 5632 5632 5632 5632 5632 5632 5632 5632 5632 5629 5627 5626 5625 5624 5623 5622 5621 5621 5620 5619 5618 5616 5615 5613 5611 5609 5608 5606 5603 5602 5600 5597 5594 5591 5588 5586 5583
5619 5620 5621 5622 5622 5623 5624 5624 5624 5624 5624 5623 5623 5625 5625 5625 5623 5621 5619 5618 5617 5616 5615 5613 5613 5613 5611 5610 5608 5607 5605 5603 5601 5599 5597 5595 5593 5591 5589 5586 5584 5581 5579 5576
5612 5613 5614 5615 5616 5618 5619 5619 5618 5618 5618 5618 5617 5617 5617 5616 5615 5614 5612 5611 5609 5608 5607 5606 5605 5604 5603 5602 5600 5599 5597 5596 5593 5591 5589 5587 5585 5583 5581 5579 5576 5574 5572 5569